Location: Bishop�s Knoyle
(51.0728°N, 2.1714°W)
Time: 00:33:51
(UTC+00:00)

ISS - Pass Details

Date: 27 September 2021
Orbit: 417 x 423 km, 51.6° (Epoch: 24 October)

Event Time Altitude Azimuth Distance (km) Brightness Sun altitude
Rises 19:44:44 0° 281° (WNW) 2,366 1.7 -17.8°
Reaches altitude 10° 19:46:50 10° 281° (W) 1,502 0.3 -18.1°
Maximum altitude 19:50:12 82° 195° (SSW) 429 -3.8 -18.6°
Enters shadow 19:50:34 68° 124° (SE) 456 -3.9 -18.6°
